Weather History for KBLF - December, 2012

Change the Weather History Date:

Tuesday, December 18, 2012

  Actual Average Record
Temperature  
Mean Temperature 41 °F 36 °F  
Max Temperature 47 °F 44 °F 69 °F (1990)
Min Temperature 34 °F 29 °F 5 °F (1964)
Degree Days  
Heating Degree Days 24 29  
Month to date heating degree days 302 474  
Since 1 July heating degree days 1374 1377  
Cooling Degree Days 0 0  
Month to date cooling degree days 0 0  
Year to date cooling degree days 1007 853  
Moisture  
Dew Point 34 °F    
Average Humidity 75    
Maximum Humidity 85    
Minimum Humidity 64    
Precipitation  
Precipitation 0.11 in 0.09 in 0.88 in (1967)
Month to date precipitation 1.45 1.74  
Year to date precipitation 41.83 38.46  
Snow  
Snow 0.00 in - - ()
Month to date snowfall T  
Since 1 July snowfall 9.6  
Snow Depth 0.00 in    
Sea Level Pressure  
Sea Level Pressure 29.76 in    
Wind  
Wind Speed 10 mph (West)    
Max Wind Speed 21 mph    
Max Gust Speed 31 mph    
Visibility 10 miles    
Events Rain    
T = Trace of Precipitation, MM = Missing Value Source: NWS Daily Summary

Daily Weather History Graph

Daily Weather History Graph

Search for Another Location

Airport or City:

Trip Planner

Search our weather history database for the weather conditions in past years. The results will help you decide how hot, cold, wet, or windy it might be!

Date:

Astronomy

Dec. 18, 2012 Rise Set
Actual Time 7:33 AM EST 5:09 PM EST
Civil Twilight 7:04 AM EST 5:38 PM EST
Nautical Twilight 6:31 AM EST 6:11 PM EST
Astronomical Twilight 6:00 AM EST 6:43 PM EST
Moon 11:19 AM EST (12/18) 11:26 PM EST (12/18)
Length of Visible Light 10h 34m
Length of Day
9h 35m
Waxing Crescent, 34% of the Moon is Illuminated
Dec 18
Waxing Crescent
Dec 20
First Quarter
Dec 28
Full
Jan 4
Last Quarter
Jan 11
New

Hourly Weather History & Observations

Time (EST) Temp. Windchill Dew Point Humidity Pressure Visibility Wind Dir Wind Speed Gust Speed Precip Events Conditions
12:52 AM 46.0 °F 41.0 °F 39.0 °F 76% 29.61 in 10.0 mi WSW 10.4 mph - 0.00 in   Overcast
1:52 AM 44.1 °F 39.5 °F 37.9 °F 79% 29.61 in 10.0 mi WSW 8.1 mph - N/A   Partly Cloudy
2:52 AM 44.1 °F 40.8 °F 37.9 °F 79% 29.61 in 10.0 mi WSW 5.8 mph - N/A   Clear
3:37 AM 44.6 °F 41.4 °F 39.2 °F 81% 29.64 in 10.0 mi West 5.8 mph - N/A   Mostly Cloudy
3:52 AM 45.0 °F 41.8 °F 39.0 °F 80% 29.61 in 10.0 mi WSW 5.8 mph - N/A   Overcast
4:21 AM 44.6 °F 41.4 °F 39.2 °F 81% 29.64 in 10.0 mi WSW 5.8 mph - 0.00 in Rain Light Rain
4:52 AM 45.0 °F 39.7 °F 39.9 °F 82% 29.61 in 10.0 mi WSW 10.4 mph - 0.00 in   Overcast
5:52 AM 45.0 °F 39.3 °F 39.0 °F 80% 29.62 in 10.0 mi West 11.5 mph - N/A   Overcast
6:29 AM 42.8 °F 36.2 °F 39.2 °F 87% 29.67 in 5.0 mi WNW 12.7 mph 21.9 mph 0.04 in Rain Light Rain
6:38 AM 42.8 °F 36.2 °F 37.4 °F 81% 29.67 in 10.0 mi West 12.7 mph - 0.04 in Rain Light Rain
6:52 AM 44.1 °F 37.4 °F 37.9 °F 79% 29.65 in 10.0 mi WNW 13.8 mph 24.2 mph 0.04 in   Overcast
7:02 AM 44.6 °F 38.8 °F 37.4 °F 76% 29.68 in 10.0 mi West 11.5 mph 19.6 mph N/A   Overcast
7:09 AM 44.6 °F 38.8 °F 37.4 °F 76% 29.68 in 10.0 mi West 11.5 mph 24.2 mph N/A   Overcast
7:23 AM 42.8 °F 35.8 °F 35.6 °F 76% 29.69 in 10.0 mi West 13.8 mph - N/A   Overcast
7:52 AM 43.0 °F 36.8 °F 36.0 °F 76% 29.68 in 10.0 mi West 11.5 mph 18.4 mph N/A   Overcast
8:31 AM 42.8 °F 36.2 °F 35.6 °F 76% 29.72 in 9.0 mi WNW 12.7 mph - 0.00 in Rain Light Rain
8:52 AM 42.1 °F 36.6 °F 36.0 °F 79% 29.71 in 10.0 mi WNW 9.2 mph 19.6 mph 0.00 in   Overcast
9:12 AM 41.0 °F 32.8 °F 35.6 °F 81% 29.74 in 6.0 mi WNW 16.1 mph 21.9 mph 0.02 in Rain Light Rain
9:52 AM 41.0 °F 34.3 °F 36.0 °F 82% 29.75 in 10.0 mi WNW 11.5 mph - 0.03 in Rain Light Rain
10:52 AM 39.9 °F 31.8 °F 35.1 °F 83% 29.78 in 10.0 mi West 15.0 mph 29.9 mph 0.03 in Rain Light Rain
11:21 AM 39.2 °F 30.5 °F 33.8 °F 81% 29.78 in 10.0 mi WNW 16.1 mph 31.1 mph N/A   Overcast
11:36 AM 39.2 °F 29.8 °F 33.8 °F 81% 29.78 in 10.0 mi West 18.4 mph 25.3 mph 0.00 in Rain Light Rain
11:52 AM 39.0 °F 29.9 °F 34.0 °F 82% 29.78 in 10.0 mi WNW 17.3 mph 26.5 mph 0.00 in Rain Light Rain
12:28 PM 37.4 °F 29.8 °F 33.8 °F 87% 29.80 in 10.0 mi WNW 11.5 mph 19.6 mph 0.01 in Rain Light Rain
12:52 PM 37.9 °F 29.2 °F 34.0 °F 86% 29.80 in 10.0 mi WNW 15.0 mph 25.3 mph 0.01 in Rain Light Rain
1:52 PM 37.9 °F 29.6 °F 32.0 °F 79% 29.82 in 10.0 mi WNW 13.8 mph 29.9 mph 0.00 in   Overcast
2:09 PM 37.4 °F 28.5 °F 32.0 °F 81% 29.82 in 10.0 mi WNW 15.0 mph 23.0 mph N/A   Overcast
2:52 PM 37.9 °F 30.0 °F 32.0 °F 79% 29.83 in 10.0 mi West 12.7 mph 24.2 mph N/A   Overcast
3:41 PM 37.4 °F 30.3 °F 32.0 °F 81% 29.83 in 10.0 mi West 10.4 mph 17.3 mph N/A   Overcast
3:52 PM 37.9 °F 31.5 °F 32.0 °F 79% 29.84 in 10.0 mi West 9.2 mph 17.3 mph N/A   Overcast
4:01 PM 37.4 °F 29.3 °F 32.0 °F 81% 29.84 in 10.0 mi WNW 12.7 mph 19.6 mph N/A   Overcast
4:52 PM 37.9 °F 30.5 °F 30.9 °F 76% 29.86 in 10.0 mi West 11.5 mph 20.7 mph N/A   Overcast
5:47 PM 37.4 °F 29.8 °F 30.2 °F 75% 29.87 in 10.0 mi West 11.5 mph - N/A   Scattered Clouds
5:52 PM 37.0 °F 30.4 °F 30.9 °F 79% 29.88 in 10.0 mi West 9.2 mph - N/A   Partly Cloudy
6:14 PM 37.4 °F 30.3 °F 30.2 °F 75% 29.88 in 10.0 mi WNW 10.4 mph - N/A   Mostly Cloudy
6:21 PM 37.4 °F 32.1 °F 30.2 °F 75% 29.88 in 10.0 mi WNW 6.9 mph - N/A   Scattered Clouds
6:52 PM 36.0 °F 30.3 °F 30.9 °F 82% 29.91 in 10.0 mi West 6.9 mph - N/A   Clear
7:52 PM 34.0 °F 28.8 °F 28.9 °F 82% 29.89 in 10.0 mi WSW 5.8 mph - N/A   Clear
8:52 PM 36.0 °F 31.1 °F 30.0 °F 79% 29.88 in 10.0 mi West 5.8 mph - N/A   Clear
9:52 PM 37.0 °F 29.8 °F 26.1 °F 65% 29.86 in 10.0 mi WSW 10.4 mph - N/A   Clear
10:52 PM 37.9 °F 30.0 °F 26.1 °F 62% 29.87 in 10.0 mi WSW 12.7 mph - N/A   Clear
11:52 PM 39.0 °F 34.0 °F 26.1 °F 60% 29.86 in 10.0 mi West 6.9 mph - N/A   Clear